Home > Weather > Montpelier > Past weeks

Flag for USA Past Weather in Montpelier, Vermont, USA — Yesterday and Last 2 Weeks

Now
76 °F

Passing clouds.


Feels Like: 78 °F
Forecast: 59 / 83 °F
Wind: 8 mph from North

Location: Knapp State Airport

Current Time: Jul 29, 2016 at 7:43:30 PM

Latest Report: Jul 29, 2016 at 6:51 PM


Visibility: 10 mi

Pressure: 29.96 "Hg

Humidity: 50%

Dew Point: 56 °F

Location of MontpelierLocation

Past Weather in Montpelier — Graph

°F

Montpelier Temperature Yesterday

Maximum temperature yesterday: 82 °F (at 12:51 PM)
Minimum temperature yesterday: 61 °F (at 3:51 AM)
Average temperature yesterday: 69 °F

High & Low Weather Summary for the Past Weeks

 TemperatureHumidityPressure
High86 °F (Jul 22, 2:51 PM)100% (Jul 17, 6:54 AM)30.26 "Hg (Jul 17, 6:54 AM)
Low48 °F (Jul 20, 3:51 AM)40% (Jul 27, 2:51 PM)29.74 "Hg (Jul 22, 5:51 PM)
Average69 °F75%29.99 "Hg
* Reported Jul 14 5:51 PM — Jul 29 5:51 PM, Montpelier, Weather by CustomWeather, © 2016

Note: Actual official high and low records may vary slightly from our data, if they occured in-between our weather recording intervals... More about our weather records

Advertising

Montpelier Weather History for the Previous 24 Hours

Scroll right to see more
 ConditionsComfort  
Time TempWeatherWind HumidityBarometerVisibility
5:51 PM
Fri, Jul 29
78 °FPassing clouds.12 mph45%29.95 "Hg10 mi
4:51 PM79 °FSunny.9 mph47%29.95 "Hg10 mi
3:51 PM80 °FSunny.7 mph44%29.93 "Hg10 mi
2:51 PM81 °FPassing clouds.8 mph44%29.94 "Hg10 mi
1:51 PM78 °FScattered clouds.8 mph52%29.95 "Hg10 mi
12:51 PM77 °FCloudy.6 mph56%29.96 "Hg10 mi
11:51 AM75 °FOvercast.3 mph71%29.97 "Hg10 mi
10:51 AM71 °FOvercast.3 mph81%29.98 "Hg10 mi
9:51 AM65 °FMostly cloudy.3 mph97%29.98 "Hg10 mi
8:51 AM65 °FLow clouds.No wind97%29.98 "Hg8 mi
7:51 AM65 °FFog.No wind97%29.98 "Hg1 mi
6:51 AM64 °FFog.3 mph100%29.96 "Hg0 mi
5:51 AM64 °FFog.No wind100%29.95 "Hg1 mi
4:51 AM65 °FFog.No wind97%29.95 "Hg1 mi
3:54 AM65 °FFog.No wind100%29.96 "Hg1 mi
2:51 AM65 °FFog.No wind100%29.95 "Hg1 mi
1:51 AM66 °FFog.3 mph96%29.96 "Hg0 mi
12:51 AM66 °FFog.No wind96%29.96 "Hg1 mi
11:51 PM
Thu, Jul 28
67 °FFog.No wind97%29.97 "Hg0 mi
10:59 PM65 °FFog.No wind100%29.97 "Hg2 mi
10:51 PM65 °FFog.No wind97%29.96 "Hg5 mi
9:59 PM65 °FPassing clouds.No wind97%29.97 "Hg10 mi
9:51 PM66 °FClear.No wind93%29.96 "Hg10 mi
8:51 PM66 °FSunny.No wind93%29.96 "Hg10 mi
7:51 PM69 °FSunny.3 mph90%29.95 "Hg10 mi
Weather by CustomWeather, © 2016

See weather overviewHow to use our weather pages